Location: Karaa?a�
(36.7158°N, 30.4165°E)
Time: 09:39:29
(UTC+00:00)

Ariane Rocket - Pass Details

Date: 09 April 2020
Orbit: 761 x 769 km, 98.7° (Epoch: 31 May)

Event Time Altitude Azimuth Distance (km) Brightness Sun altitude
Rises 16:43:45 0° 141° (SE) 3,218 5.7 -4.0°
Reaches altitude 10° 16:46:14 10° 132° (SE) 2,294 4.9 -4.4°
Maximum altitude 16:50:43 33° 69° (ENE) 1,255 3.7 -5.3°
Drops below altitude 10° 16:55:14 10° 7° (N) 2,302 5.6 -6.2°
Sets 16:57:43 0° 358° (N) 3,231 6.5 -6.7°
